CW8809 Weather Reports


Display with metric or nautical units.
time (UTC)temp
F
wind
direction
speed
MPH
gust
MPH
rain 1hr
in
rain 24hr
in
rain mn
in
humidity
%
barometer
mb
20180223141935 69 292 0.0 0.0 0.00 0.00 0.00 51 1012.0
20180223140933 70 315 0.0 1.0 0.00 0.00 0.00 51 1011.9
20180223135931 70 225 0.0 0.0 0.00 0.00 0.00 51 1011.9
20180223134930 71 225 0.0 0.0 0.00 0.00 0.00 50 1012.2
20180223133927 71 225 0.0 0.0 0.00 0.00 0.00 49 1012.1
20180223132925 72 225 0.0 1.0 0.00 0.00 0.00 49 1012.1
20180223131923 72 225 1.0 1.0 0.00 0.00 0.00 48 1012.1
20180223130921 72 270 0.0 0.0 0.00 0.00 0.00 47 1012.1
20180223125919 73 45 0.0 1.0 0.00 0.00 0.00 46 1012.0
20180223124917 73 67 0.0 0.0 0.00 0.00 0.00 46 1012.3
20180223123915 73 22 0.0 3.0 0.00 0.00 0.00 45 1012.2
20180223122912 73 45 0.0 1.0 0.00 0.00 0.00 43 1012.2
20180223121911 73 67 0.0 0.0 0.00 0.00 0.00 41 1012.1
20180223120908 73 112 0.0 0.0 0.00 0.00 0.00 42 1011.7
20180223115906 73 112 0.0 0.0 0.00 0.00 0.00 42 1011.3
20180223114904 73 315 0.0 0.0 0.00 0.00 0.00 43 1011.6
20180223113902 73 315 0.0 0.0 0.00 0.00 0.00 43 1011.9
20180223111643 74 315 0.0 0.0 0.00 0.00 0.00 42 1011.5
20180223110642 74 315 0.0 0.0 0.00 0.00 0.00 42 1011.5
20180223105640 74 315 0.0 0.0 0.00 0.00 0.00 42 1011.5
20180223104638 74 315 0.0 0.0 0.00 0.00 0.00 41 1011.1
20180223103635 74 315 0.0 0.0 0.00 0.00 0.00 41 1011.0
20180223102633 75 315 0.0 0.0 0.00 0.00 0.00 40 1011.1
20180223101631 75 315 0.0 0.0 0.00 0.00 0.00 39 1010.7
20180223100629 76 315 0.0 0.0 0.00 0.00 0.00 38 1010.7
20180223095626 76 315 0.0 0.0 0.00 0.00 0.00 38 1011.0
20180223094624 77 315 0.0 0.0 0.00 0.00 0.00 37 1011.3
20180223093621 77 292 0.0 0.0 0.00 0.00 0.00 36 1011.3
20180223092619 77 292 0.0 0.0 0.00 0.00 0.00 36 1011.0
20180223091615 78 292 0.0 0.0 0.00 0.00 0.00 35 1011.0
20180223090610 78 292 0.0 0.0 0.00 0.00 0.00 34 1010.7
20180223085607 79 292 0.0 0.0 0.00 0.00 0.00 32 1010.7
20180223084606 79 315 0.0 0.0 0.00 0.00 0.00 32 1011.0
20180223083557 80 247 0.0 0.0 0.00 0.00 0.00 31 1011.0
20180223082555 80 247 0.0 1.0 0.00 0.00 0.00 31 1011.0
20180223081552 81 247 1.0 2.0 0.00 0.00 0.00 30 1011.0
20180223080550 81 274 2.0 2.0 0.00 0.00 0.00 30 1011.3
20180223075548 81 270 1.0 6.0 0.00 0.00 0.00 30 1011.4
20180223074546 82 243 3.0 4.0 0.00 0.00 0.00 30 1011.4
20180223073542 82 89 3.0 3.0 0.00 0.00 0.00 30 1011.4
20180223072541 83 336 7.0 7.0 0.00 0.00 0.00 29 1011.8
20180223071538 84 356 5.0 9.0 0.00 0.00 0.00 28 1011.8
20180223070536 85 337 2.0 4.0 0.00 0.00 0.00 28 1011.9
20180223065534 85 0 5.0 5.0 0.00 0.00 0.00 26 1011.9
20180223064533 86 320 5.0 9.0 0.00 0.00 0.00 26 1012.0
20180223063531 86 322 6.0 11.0 0.00 0.00 0.00 26 1012.0
20180223062528 87 358 6.0 8.0 0.00 0.00 0.00 26 1012.1
20180223061527 86 2 6.0 11.0 0.00 0.00 0.00 26 1012.1
20180223060524 87 337 10.0 16.0 0.00 0.00 0.00 25 1012.1
20180223055522 87 235 4.0 6.0 0.00 0.00 0.00 26 1012.1
20180223054520 87 354 6.0 9.0 0.00 0.00 0.00 25 1011.8
20180223053518 88 339 4.0 9.0 0.00 0.00 0.00 25 1011.8
20180223052515 87 337 4.0 7.0 0.00 0.00 0.00 26 1011.8
20180223051514 87 339 7.0 7.0 0.00 0.00 0.00 26 1011.5
20180223050512 87 202 5.0 8.0 0.00 0.00 0.00 26 1011.5
20180223045510 87 335 6.0 8.0 0.00 0.00 0.00 25 1011.4
20180223044508 87 312 8.0 16.0 0.00 0.00 0.00 25 1011.8
20180223043506 87 315 1.0 2.0 0.00 0.00 0.00 26 1012.2
20180223042504 85 332 3.0 8.0 0.00 0.00 0.00 27 1012.4
20180223041502 87 336 8.0 11.0 0.00 0.00 0.00 27 1012.9
20180223040500 86 292 2.0 7.0 0.00 0.00 0.00 28 1013.2
20180223035458 85 337 3.0 8.0 0.00 0.00 0.00 28 1012.8
20180223034456 85 22 8.0 14.0 0.00 0.00 0.00 28 1013.5
20180223033453 86 271 4.0 18.0 0.00 0.00 0.00 27 1013.5
20180223032451 86 337 3.0 5.0 0.00 0.00 0.00 29 1013.9
20180223031449 86 227 4.0 4.0 0.00 0.00 0.00 28 1013.9
20180223030447 86 233 4.0 5.0 0.00 0.00 0.00 29 1013.9
20180223025445 85 0 4.0 4.0 0.00 0.00 0.00 31 1013.9
20180223024443 84 247 3.0 5.0 0.00 0.00 0.00 31 1014.1
20180223023441 83 196 4.0 8.0 0.00 0.00 0.00 30 1014.1
20180223022438 83 270 7.0 7.0 0.00 0.00 0.00 32 1014.4
20180223021436 82 41 3.0 8.0 0.00 0.00 0.00 31 1014.4
20180223020434 81 186 2.0 9.0 0.00 0.00 0.00 34 1014.7
20180223015432 80 315 1.0 1.0 0.00 0.00 0.00 38 1015.0
20180223014430 79 173 1.0 4.0 0.00 0.00 0.00 42 1015.3
20180223013428 77 112 3.0 3.0 0.00 0.00 0.00 44 1015.2
20180223012427 77 225 0.0 6.0 0.00 0.00 0.00 45 1015.5
20180223011424 78 225 7.0 7.0 0.00 0.00 0.00 44 1015.6
20180223010421 76 202 3.0 3.0 0.00 0.00 0.00 49 1015.5
20180223005419 74 90 2.0 4.0 0.00 0.00 0.00 48 1015.4
20180223004417 73 301 3.0 4.0 0.00 0.00 0.00 50 1015.7
20180223003415 73 225 3.0 3.0 0.00 0.00 0.00 52 1016.0
20180223002412 71 202 0.0 3.0 0.00 0.00 0.00 56 1015.7
20180223001410 70 337 0.0 1.0 0.00 0.00 0.00 55 1015.9
20180223000408 70 337 1.0 3.0 0.00 0.00 0.00 57 1015.9
20180222235404 69 337 1.0 7.0 0.00 0.00 0.00 60 1016.3
20180222234402 68 189 5.0 7.0 0.00 0.00 0.00 62 1016.2
20180222233400 67 157 2.0 4.0 0.00 0.00 0.00 63 1016.1
20180222232358 66 112 1.0 4.0 0.00 0.00 0.00 65 1016.1
20180222231356 66 67 2.0 3.0 0.00 0.00 0.00 66 1016.4
20180222230354 66 135 6.0 6.0 0.00 0.00 0.00 68 1016.5
20180222225352 65 67 2.0 2.0 0.00 0.00 0.00 67 1016.5
20180222224351 65 45 1.0 4.0 0.00 0.00 0.00 69 1016.5
20180222223348 64 157 7.0 7.0 0.00 0.00 0.00 71 1016.4
20180222222346 63 112 0.0 4.0 0.00 0.00 0.00 72 1016.7
20180222221344 63 157 2.0 4.0 0.00 0.00 0.00 73 1016.4
20180222220342 63 112 3.0 3.0 0.00 0.00 0.00 73 1016.4
20180222215341 61 135 1.0 5.0 0.00 0.00 0.00 75 1016.3
20180222214338 61 202 4.0 4.0 0.00 0.00 0.00 76 1016.3
20180222213336 60 135 1.0 4.0 0.00 0.00 0.00 77 1016.3
20180222212334 60 113 4.0 9.0 0.00 0.00 0.00 77 1016.7
20180222211332 60 135 1.0 3.0 0.00 0.00 0.00 78 1016.4
20180222210330 59 135 3.0 5.0 0.00 0.00 0.00 79 1016.4
20180222205322 59 91 2.0 3.0 0.00 0.00 0.00 79 1016.4
20180222204319 59 135 2.0 3.0 0.00 0.00 0.00 79 1016.1
20180222203317 58 135 0.0 1.0 0.00 0.00 0.00 80 1016.1
20180222202314 58 135 0.0 0.0 0.00 0.00 0.00 80 1016.1
20180222201312 57 112 0.0 3.0 0.00 0.00 0.00 80 1015.7
20180222200310 57 112 0.0 0.0 0.00 0.00 0.00 80 1015.8
20180222195308 57 112 0.0 0.0 0.00 0.00 0.00 80 1015.8
20180222194306 57 67 0.0 0.0 0.00 0.00 0.00 80 1015.8
20180222193304 57 67 0.0 0.0 0.00 0.00 0.00 80 1015.5
20180222192303 57 90 0.0 0.0 0.00 0.00 0.00 80 1015.9
20180222191301 57 90 0.0 3.0 0.00 0.00 0.00 80 1015.6
20180222190259 57 67 0.0 0.0 0.00 0.00 0.00 80 1015.3
20180222185258 57 180 0.0 0.0 0.00 0.00 0.00 80 1015.7
20180222184256 57 112 0.0 0.0 0.00 0.00 0.00 80 1015.3
20180222183255 57 90 0.0 0.0 0.00 0.00 0.00 80 1015.6
20180222182253 58 67 0.0 0.0 0.00 0.00 0.00 80 1015.7
20180222181252 58 112 0.0 0.0 0.00 0.00 0.00 80 1015.8
20180222180250 58 90 0.0 1.0 0.00 0.00 0.00 80 1015.4
20180222175248 58 22 1.0 1.0 0.00 0.00 0.00 80 1015.5
20180222174247 58 67 0.0 3.0 0.00 0.00 0.00 80 1015.4
20180222173245 58 135 0.0 3.0 0.00 0.00 0.00 80 1015.4
20180222172243 58 112 1.0 7.0 0.00 0.00 0.00 80 1015.4
20180222171242 58 135 3.0 3.0 0.00 0.00 0.00 80 1015.4
20180222170240 58 135 4.0 5.0 0.00 0.00 0.00 80 1015.4
20180222165239 59 135 1.0 2.0 0.00 0.00 0.00 80 1015.4
20180222164237 59 112 0.0 3.0 0.00 0.00 0.00 79 1015.4
20180222163235 59 135 0.0 0.0 0.00 0.00 0.00 79 1015.4
20180222162234 59 135 6.0 6.0 0.00 0.00 0.00 79 1015.4
20180222161232 59 112 4.0 4.0 0.00 0.00 0.00 78 1015.7
20180222160231 59 135 0.0 5.0 0.00 0.00 0.00 78 1015.8
20180222155229 59 135 2.0 2.0 0.00 0.00 0.00 77 1015.8
20180222154228 60 112 1.0 1.0 0.00 0.00 0.00 75 1015.8
20180222153226 60 112 0.0 0.0 0.00 0.00 0.00 74 1016.2
20180222152225 60 112 0.0 0.0 0.00 0.00 0.00 73 1016.1
20180222151223 60 112 0.0 0.0 0.00 0.00 0.00 72 1016.1
20180222150222 60 112 0.0 0.0 0.00 0.00 0.00 72 1016.0
20180222145220 61 67 0.0 0.0 0.00 0.00 0.00 71 1016.0
20180222144219 61 67 0.0 0.0 0.00 0.00 0.00 70 1015.9